FW1417 Weather Reports


Display with metric or nautical units.
time (UTC)temp
F
wind
direction
speed
MPH
gust
MPH
rain 1hr
in
rain 24hr
in
rain mn
in
humidity
%
barometer
mb
20260509220206 58 30 1.0 3.0 0.05 0.15 0.15 83 1007.2
20260509215706 58 49 1.0 3.0 0.04 0.14 0.14 83 1007.1
20260509214706 58 270 1.0 5.0 0.00 0.10 0.10 82 1008.0
20260509214206 58 325 2.0 6.0 0.00 0.10 0.10 82 1007.1
20260509213706 58 350 3.0 6.0 0.00 0.10 0.10 83 1007.0
20260509213205 58 35 2.0 6.0 0.00 0.10 0.10 83 1007.0
20260509212706 58 39 2.0 5.0 0.00 0.10 0.10 83 1007.4
20260509212206 58 9 2.0 5.0 0.00 0.10 0.10 83 1007.5
20260509211706 58 5 2.0 5.0 0.00 0.10 0.10 83 1007.4
20260509211206 58 12 2.0 5.0 0.01 0.10 0.10 83 1007.2
20260509210706 59 51 3.0 5.0 0.02 0.10 0.10 83 1007.3
20260509210206 59 51 2.0 6.0 0.03 0.10 0.10 83 1007.2
20260509205706 58 13 3.0 6.0 0.03 0.10 0.10 82 1007.1
20260509205206 58 25 2.0 9.0 0.03 0.10 0.10 82 1007.3
20260509204706 58 317 3.0 9.0 0.03 0.10 0.10 82 1007.4
20260509204206 59 11 4.0 9.0 0.03 0.10 0.10 82 1007.5
20260509203706 59 311 4.0 8.0 0.03 0.10 0.10 82 1007.6
20260509203206 59 355 2.0 3.0 0.03 0.10 0.10 82 1007.6
20260509202706 59 322 2.0 3.0 0.03 0.10 0.10 81 1007.6
20260509202206 59 311 1.0 5.0 0.03 0.10 0.10 81 1007.7
20260509201706 59 296 1.0 5.0 0.03 0.10 0.10 80 1007.6
20260509201205 59 332 3.0 5.0 0.02 0.09 0.09 79 1007.5
20260509200706 60 10 1.0 3.0 0.01 0.08 0.08 80 1007.6
20260509200206 60 269 1.0 3.0 0.00 0.07 0.07 80 1007.8
20260509195706 60 355 0.0 3.0 0.01 0.07 0.07 80 1007.7
20260509195207 60 355 1.0 3.0 0.01 0.07 0.07 80 1007.7
20260509194705 60 15 2.0 3.0 0.02 0.07 0.07 79 1007.8
20260509193705 60 318 2.0 7.0 0.04 0.07 0.07 79 1007.6
20260509193206 60 355 3.0 7.0 0.05 0.07 0.07 79 1007.6
20260509192706 60 358 2.0 7.0 0.06 0.07 0.07 79 1007.4
20260509192206 60 16 2.0 6.0 0.06 0.07 0.07 79 1007.3
20260509191706 60 348 2.0 7.0 0.07 0.07 0.07 79 1007.1
20260509191206 60 5 2.0 7.0 0.07 0.07 0.07 79 1007.0
20260509190207 61 65 3.0 9.0 0.07 0.07 0.07 77 1006.8
20260509185205 62 257 1.0 3.0 0.06 0.06 0.06 74 1008.2
20260509184705 62 223 0.0 3.0 0.05 0.05 0.05 74 1008.4
20260509183706 63 249 2.0 12.0 0.03 0.03 0.03 72 1008.3
20260509182705 63 165 1.0 8.0 0.01 0.01 0.01 70 1008.0
20260509181705 64 190 1.0 5.0 0.00 0.00 0.00 68 1007.9
20260509181206 64 215 2.0 8.0 0.00 0.00 0.00 67 1007.5
20260509180706 64 140 2.0 8.0 0.00 0.00 0.00 66 1007.2
20260509175706 64 147 3.0 6.0 0.00 0.00 0.00 66 1007.2
20260509175205 64 143 1.0 6.0 0.00 0.00 0.00 67 1007.0
20260509174706 63 153 2.0 8.0 0.00 0.00 0.00 67 1006.9
20260509174205 63 108 2.0 8.0 0.00 0.00 0.00 67 1007.1
20260509173706 64 170 3.0 8.0 0.00 0.00 0.00 67 1007.3
20260509173205 65 70 1.0 8.0 0.00 0.00 0.00 65 1007.1
20260509172705 65 134 3.0 7.0 0.00 0.00 0.00 63 1007.0
20260509171705 65 149 2.0 8.0 0.00 0.00 0.00 62 1006.9
20260509170705 65 123 1.0 8.0 0.00 0.00 0.00 61 1006.9
20260509165706 65 112 2.0 5.0 0.00 0.00 0.00 60 1007.1
20260509165205 66 133 2.0 5.0 0.00 0.00 0.00 60 1007.3
20260509164205 65 119 2.0 5.0 0.00 0.00 0.00 61 1007.5
20260509163705 65 177 2.0 6.0 0.00 0.00 0.00 61 1007.7
20260509163206 65 204 3.0 6.0 0.00 0.00 0.00 62 1007.8
20260509162705 64 161 2.0 7.0 0.00 0.00 0.00 63 1007.9
20260509161705 63 153 4.0 8.0 0.00 0.00 0.00 65 1008.1
20260509161206 62 147 3.0 6.0 0.00 0.00 0.00 66 1008.2
20260509160706 63 137 2.0 5.0 0.00 0.00 0.00 66 1008.2
20260509160205 62 124 2.0 5.0 0.00 0.00 0.00 67 1008.3
20260509155705 62 112 2.0 5.0 0.00 0.00 0.00 66 1008.3
20260509155205 62 147 3.0 5.0 0.00 0.00 0.00 65 1008.5
20260509154705 62 146 1.0 3.0 0.00 0.00 0.00 67 1008.5
20260509153705 62 113 1.0 6.0 0.00 0.00 0.00 65 1008.6
20260509153206 62 84 2.0 6.0 0.00 0.00 0.00 65 1008.6
20260509152206 62 167 3.0 7.0 0.00 0.00 0.00 65 1008.8
20260509151706 62 134 2.0 7.0 0.00 0.00 0.00 64 1008.7
20260509150706 61 141 3.0 9.0 0.00 0.00 0.00 65 1008.7
20260509150205 62 124 2.0 9.0 0.00 0.00 0.00 65 1008.7
20260509145205 63 111 2.0 7.0 0.00 0.00 0.00 64 1008.7
20260509144706 62 159 2.0 7.0 0.00 0.00 0.00 65 1008.7
20260509144206 62 82 3.0 9.0 0.00 0.00 0.00 65 1008.8
20260509143705 61 178 2.0 9.0 0.00 0.00 0.00 66 1008.8
20260509143205 61 137 3.0 9.0 0.00 0.00 0.00 67 1008.8
20260509142705 61 149 3.0 8.0 0.00 0.00 0.00 67 1008.7
20260509142205 60 143 2.0 8.0 0.00 0.00 0.00 67 1008.7
20260509141706 60 155 2.0 8.0 0.00 0.00 0.00 67 1008.7
20260509141206 60 142 2.0 8.0 0.00 0.00 0.00 67 1008.9
20260509140705 60 141 2.0 8.0 0.00 0.00 0.00 67 1008.8
20260509140205 60 155 2.0 8.0 0.00 0.00 0.00 67 1008.8
20260509135705 60 128 3.0 9.0 0.00 0.00 0.00 67 1008.9
20260509135205 60 124 3.0 9.0 0.00 0.00 0.00 67 1008.9
20260509134705 60 157 5.0 9.0 0.00 0.00 0.00 67 1008.8
20260509133705 60 151 2.0 9.0 0.00 0.00 0.00 66 1009.0
20260509133205 60 141 3.0 7.0 0.00 0.00 0.00 66 1009.0
20260509132705 60 119 3.0 7.0 0.00 0.00 0.00 66 1008.9
20260509132205 59 153 4.0 7.0 0.00 0.00 0.00 66 1008.9
20260509131705 59 148 2.0 8.0 0.00 0.00 0.00 67 1008.7
20260509130205 59 148 3.0 8.0 0.00 0.00 0.00 68 1009.0
20260509125705 59 136 2.0 8.0 0.00 0.00 0.00 68 1009.0
20260509125205 58 225 5.0 9.0 0.00 0.00 0.00 68 1009.3
20260509124705 58 144 3.0 9.0 0.00 0.00 0.00 67 1009.3
20260509124206 58 169 2.0 8.0 0.00 0.00 0.00 67 1009.3
20260509123706 58 144 5.0 8.0 0.00 0.00 0.00 68 1009.3
20260509123205 58 144 3.0 5.0 0.00 0.00 0.00 69 1009.3
20260509122705 58 169 2.0 5.0 0.00 0.00 0.00 69 1009.3
20260509122206 58 158 1.0 3.0 0.00 0.00 0.00 68 1009.3
20260509120705 58 160 3.0 7.0 0.00 0.00 0.00 69 1009.2
20260509120205 58 126 0.0 5.0 0.00 0.00 0.00 69 1009.1
20260509115705 58 173 3.0 5.0 0.00 0.00 0.00 69 1009.5
20260509115205 58 164 3.0 5.0 0.00 0.00 0.00 69 1009.4
20260509114205 58 144 2.0 8.0 0.00 0.00 0.00 68 1009.3
20260509113705 58 136 5.0 8.0 0.00 0.00 0.00 68 1009.3
20260509113205 58 144 3.0 8.0 0.00 0.00 0.00 67 1009.2
20260509112705 58 126 2.0 7.0 0.00 0.00 0.00 67 1009.2
20260509112205 58 149 1.0 3.0 0.00 0.00 0.00 66 1009.2
20260509111705 58 167 2.0 5.0 0.00 0.00 0.00 66 1009.2
20260509111206 58 159 2.0 5.0 0.00 0.00 0.00 66 1009.3
20260509110705 58 174 1.0 6.0 0.00 0.00 0.00 65 1009.4
20260509110205 58 152 2.0 6.0 0.00 0.00 0.00 65 1009.2
20260509105205 58 171 2.0 6.0 0.00 0.00 0.00 64 1009.5
20260509104705 58 145 2.0 6.0 0.00 0.00 0.00 64 1009.0
20260509104205 58 145 2.0 5.0 0.00 0.00 0.00 64 1009.0
20260509103705 58 140 2.0 6.0 0.00 0.00 0.00 64 1008.9
20260509102705 58 126 1.0 3.0 0.00 0.00 0.00 64 1008.9
20260509102205 58 137 2.0 5.0 0.00 0.00 0.00 63 1009.0
20260509101705 58 172 2.0 5.0 0.00 0.00 0.00 63 1008.8
20260509101205 58 153 2.0 3.0 0.00 0.00 0.00 62 1008.9
20260509100704 58 157 1.0 6.0 0.00 0.00 0.00 62 1008.9
20260509100205 58 151 2.0 6.0 0.00 0.00 0.00 62 1008.7
20260509095705 58 151 2.0 6.0 0.00 0.00 0.00 62 1008.7
20260509095204 58 177 1.0 3.0 0.00 0.00 0.00 62 1008.7
20260509094705 58 162 1.0 3.0 0.00 0.00 0.00 62 1008.7
20260509094204 58 182 0.0 6.0 0.00 0.00 0.00 62 1008.8
20260509093205 58 147 1.0 5.0 0.00 0.00 0.00 61 1008.5
20260509092704 58 219 1.0 3.0 0.00 0.00 0.00 61 1008.6
20260509092205 58 230 1.0 5.0 0.00 0.00 0.00 60 1008.6
20260509091705 58 153 2.0 5.0 0.00 0.00 0.00 60 1008.6
20260509091206 58 156 2.0 3.0 0.00 0.00 0.00 61 1008.7
20260509090705 58 188 1.0 3.0 0.00 0.00 0.00 62 1008.9
20260509085705 58 150 0.0 5.0 0.00 0.00 0.00 62 1008.9
20260509085204 58 150 0.0 5.0 0.00 0.00 0.00 62 1008.8
20260509083704 58 164 2.0 5.0 0.00 0.00 0.00 63 1008.8
20260509083205 58 155 2.0 5.0 0.00 0.00 0.00 63 1008.8
20260509082704 58 160 1.0 3.0 0.00 0.00 0.00 64 1008.8
20260509081705 58 160 0.0 1.0 0.00 0.00 0.00 64 1008.8
20260509081205 58 160 0.0 1.0 0.00 0.00 0.00 64 1008.9
20260509080705 58 160 0.0 1.0 0.00 0.00 0.00 63 1008.9
20260509080205 58 160 0.0 2.0 0.00 0.00 0.00 63 1008.9
20260509075705 58 160 0.0 3.0 0.00 0.00 0.00 62 1009.0
20260509074705 58 149 1.0 6.0 0.00 0.00 0.00 61 1009.0
20260509074204 58 150 1.0 6.0 0.00 0.00 0.00 61 1009.1
20260509073704 58 117 3.0 6.0 0.00 0.00 0.00 62 1009.0
20260509072205 58 132 3.0 6.0 0.00 0.00 0.00 61 1009.2
20260509070704 58 155 1.0 2.0 0.00 0.00 0.00 63 1009.0
20260509065705 58 145 1.0 2.0 0.00 0.00 0.00 63 1008.8
20260509065204 58 132 1.0 2.0 0.00 0.00 0.00 62 1008.7
20260509064205 58 140 0.0 0.0 0.00 0.00 0.00 61 1008.8
20260509063704 58 140 0.0 2.0 0.00 0.00 0.00 62 1008.9
20260509063204 58 140 0.0 2.0 0.00 0.00 0.00 61 1009.0
20260509062704 58 140 1.0 3.0 0.00 0.00 0.00 60 1009.0
20260509062204 58 144 1.0 3.0 0.00 0.00 0.00 60 1009.2
20260509061705 58 145 1.0 3.0 0.00 0.00 0.00 60 1009.3
20260509061204 58 276 0.0 0.0 0.00 0.00 0.00 59 1009.3
20260509060205 58 276 0.0 2.0 0.00 0.00 0.00 58 1009.5
20260509055705 58 276 0.0 0.0 0.00 0.00 0.00 58 1009.5
20260509055205 58 276 0.0 0.0 0.00 0.00 0.00 58 1009.6
20260509054705 58 276 0.0 2.0 0.00 0.00 0.00 58 1009.7
20260509054204 58 276 0.0 2.0 0.00 0.00 0.00 58 1009.6
20260509053704 58 273 1.0 2.0 0.00 0.00 0.00 58 1009.7
20260509053205 58 156 0.0 2.0 0.00 0.00 0.00 58 1009.6
20260509052704 58 156 0.0 2.0 0.00 0.00 0.00 57 1009.5
20260509052204 58 156 0.0 2.0 0.00 0.00 0.00 57 1009.6
20260509051705 58 157 0.0 0.0 0.00 0.00 0.00 57 1009.7
20260509051204 58 157 0.0 0.0 0.00 0.00 0.00 56 1009.5
20260509050704 57 157 0.0 0.0 0.00 0.00 0.00 57 1009.5
20260509045704 57 157 0.0 0.0 0.00 0.00 0.00 57 1009.5
20260509045205 57 157 0.0 0.0 0.00 0.00 0.00 57 1009.5
20260509044704 57 157 0.0 0.0 0.00 0.00 0.00 57 1009.5
20260509044205 57 157 0.0 0.0 0.00 0.00 0.00 56 1009.5
20260509043704 57 157 0.0 0.0 0.00 0.00 0.00 56 1009.5
20260509043205 57 157 0.0 0.0 0.00 0.00 0.00 56 1009.6
20260509042704 57 157 0.0 1.0 0.00 0.00 0.00 56 1009.4
20260509042205 57 157 1.0 1.0 0.00 0.00 0.00 56 1009.6
20260509041709 58 157 0.0 0.0 0.00 0.00 0.00 55 1009.6
20260509041208 58 157 0.0 0.0 0.00 0.00 0.00 55 1009.6
20260509040708 58 157 0.0 0.0 0.00 0.00 0.00 55 1009.5
20260509035709 58 157 0.0 0.0 0.00 0.00 0.00 54 1009.5
20260509035209 58 157 0.0 0.0 0.00 0.00 0.00 54 1009.5
20260509033708 58 157 0.0 0.0 0.00 0.00 0.00 54 1009.8
20260509033209 59 157 0.0 0.0 0.00 0.00 0.00 54 1009.9
20260509032709 59 157 0.0 0.0 0.00 0.00 0.00 54 1009.8
20260509031708 59 157 0.0 1.0 0.00 0.00 0.00 55 1009.9
20260509031207 59 157 0.0 3.0 0.00 0.00 0.00 55 1009.9
20260509030708 59 157 0.0 3.0 0.00 0.00 0.00 54 1009.9
20260509030208 59 157 1.0 6.0 0.00 0.00 0.00 55 1009.9
20260509025208 59 132 3.0 6.0 0.00 0.00 0.00 53 1010.0
20260509024709 59 149 1.0 6.0 0.00 0.00 0.00 54 1009.9
20260509024208 59 149 1.0 3.0 0.00 0.00 0.00 54 1010.1
20260509023709 59 129 1.0 3.0 0.00 0.00 0.00 54 1010.1
20260509023208 59 144 2.0 3.0 0.00 0.00 0.00 54 1010.0
20260509022708 59 155 2.0 5.0 0.00 0.00 0.00 54 1010.0
20260509022208 59 111 2.0 8.0 0.00 0.00 0.00 55 1009.9
20260509021708 59 94 2.0 8.0 0.00 0.00 0.00 55 1009.8
20260509021208 59 127 2.0 10.0 0.00 0.00 0.00 55 1009.8
20260509020708 59 119 3.0 10.0 0.00 0.00 0.00 55 1009.8
20260509020208 59 101 2.0 7.0 0.00 0.00 0.00 55 1009.7
20260509015708 59 129 2.0 7.0 0.00 0.00 0.00 56 1009.7
20260509015208 59 121 3.0 8.0 0.00 0.00 0.00 57 1009.5
20260509014708 59 113 2.0 8.0 0.00 0.00 0.00 57 1009.5
20260509013709 59 75 0.0 3.0 0.00 0.00 0.00 53 1009.4
20260509013208 59 24 1.0 3.0 0.00 0.00 0.00 53 1009.2
20260509012708 59 36 1.0 3.0 0.00 0.00 0.00 53 1009.2
20260509012208 59 333 0.0 2.0 0.00 0.00 0.00 53 1009.1
20260509011708 59 333 1.0 3.0 0.00 0.00 0.00 52 1009.0
20260509011209 59 340 1.0 3.0 0.00 0.00 0.00 53 1009.0
20260509010707 59 5 1.0 3.0 0.00 0.00 0.00 53 1009.0
20260509010208 59 43 1.0 3.0 0.00 0.00 0.00 53 1008.8
20260509005708 59 35 2.0 3.0 0.00 0.00 0.00 52 1008.7
20260509004708 59 342 0.0 3.0 0.00 0.00 0.00 52 1008.6
20260509004208 59 25 1.0 3.0 0.00 0.00 0.00 52 1008.5
20260509003708 59 40 1.0 3.0 0.00 0.00 0.00 53 1008.4
20260509003208 59 34 2.0 3.0 0.00 0.00 0.00 53 1008.3
20260509002708 59 44 2.0 3.0 0.00 0.00 0.00 52 1008.3
20260509002208 59 28 1.0 3.0 0.00 0.00 0.00 53 1008.4
20260509001708 59 45 2.0 3.0 0.00 0.00 0.00 53 1008.3
20260509001208 60 38 2.0 3.0 0.00 0.00 0.00 51 1008.4
20260509000708 60 4 1.0 5.0 0.00 0.00 0.00 50 1008.4
20260509000211 60 354 2.0 5.0 0.00 0.00 0.00 50 1008.4
20260508235708 60 351 1.0 5.0 0.00 0.00 0.00 50 1008.5
20260508235208 60 333 2.0 5.0 0.00 0.00 0.00 50 1008.4
20260508234707 60 355 2.0 3.0 0.00 0.00 0.00 49 1008.3
20260508234207 60 338 2.0 3.0 0.00 0.00 0.00 49 1008.3
20260508233708 60 11 1.0 3.0 0.00 0.00 0.00 49 1008.2
20260508233208 60 313 2.0 3.0 0.00 0.00 0.00 49 1008.1
20260508232708 61 33 2.0 3.0 0.00 0.00 0.00 48 1007.9
20260508232207 61 22 2.0 6.0 0.00 0.00 0.00 48 1007.9
20260508231209 62 292 2.0 5.0 0.00 0.00 0.00 47 1007.8
20260508230707 62 327 1.0 3.0 0.00 0.00 0.00 46 1007.9
20260508230208 62 334 2.0 6.0 0.00 0.00 0.00 47 1007.8
20260508225708 62 319 2.0 6.0 0.00 0.00 0.00 47 1007.8
20260508224208 62 290 1.0 7.0 0.00 0.00 0.00 46 1007.6
20260508223208 61 262 2.0 8.0 0.00 0.00 0.00 46 1007.8
20260508221708 62 321 3.0 8.0 0.00 0.00 0.00 45 1007.8